| time (UTC) | temp C | wind direction | speed KPH | gust KPH | rain 1hr cm | rain 24hr cm | rain mn cm | humidity % | barometer mb |
| 20260502151520 | 6 | 325 | 0.0 | 4.8 | 0.00 | 0.38 | 0.38 | 50 | 1012.1 |
| 20260502150117 | 6 | 319 | 3.2 | 12.9 | 0.00 | 0.38 | 0.38 | 42 | 1012.0 |
| 20260502123043 | 6 | 260 | 0.0 | 3.2 | 0.00 | 0.38 | 0.38 | 1 | 1011.9 |
| 20260502114515 | 6 | 271 | 0.0 | 0.0 | 0.03 | 0.38 | 0.38 | 1 | 1012.0 |
| 20260502113106 | 6 | 271 | 0.0 | 0.0 | 0.03 | 0.38 | 0.38 | 1 | 1011.8 |
| 20260502111529 | 5 | 271 | 0.0 | 1.6 | 0.00 | 0.36 | 0.36 | 1 | 1011.8 |
| 20260502110121 | 5 | 271 | 0.0 | 0.0 | 0.03 | 0.36 | 0.36 | 1 | 1012.1 |
| 20260502104548 | 5 | 271 | 0.0 | 1.6 | 0.10 | 0.36 | 0.36 | 1 | 1011.7 |
| 20260502103132 | 5 | 271 | 0.0 | 0.0 | 0.13 | 0.36 | 0.36 | 1 | 1011.4 |
| 20260502101617 | 5 | 271 | 0.0 | 0.0 | 0.15 | 0.36 | 0.36 | 1 | 1011.1 |
| 20260502070137 | 6 | 40 | 0.0 | 1.6 | 0.08 | 0.10 | 0.10 | 15 | 1011.5 |
| 20260502064549 | 6 | 331 | 0.0 | 0.0 | 0.08 | 0.10 | 0.10 | 18 | 1011.4 |
| 20260502063006 | 6 | 331 | 0.0 | 0.0 | 0.03 | 0.05 | 0.05 | 27 | 1011.7 |
| 20260502061552 | 6 | 331 | 0.0 | 0.0 | 0.03 | 0.05 | 0.05 | 32 | 1011.7 |
| 20260502060012 | 6 | 331 | 0.0 | 3.2 | 0.00 | 0.03 | 0.03 | 37 | 1011.7 |
| 20260502053020 | 6 | 331 | 0.0 | 1.6 | 0.00 | 0.03 | 0.03 | 54 | 1011.6 |
| 20260502051634 | 7 | 331 | 0.0 | 0.0 | 0.03 | 0.03 | 0.03 | 61 | 1011.6 |
| 20260502050026 | 7 | 331 | 0.0 | 4.8 | 0.03 | 0.03 | 0.03 | 60 | 1012.1 |
| 20260502044616 | 7 | 286 | 0.0 | 0.0 | 0.03 | 0.03 | 0.03 | 60 | 1011.8 |
| 20260502043034 | 7 | 286 | 0.0 | 3.2 | 0.03 | 0.03 | 0.03 | 63 | 1011.9 |
| 20260502041626 | 8 | 240 | 0.0 | 0.0 | 0.00 | 0.00 | 0.00 | 65 | 1011.9 |
| 20260502040058 | 8 | 240 | 0.0 | 0.0 | 0.00 | 0.00 | 0.00 | 68 | 1011.9 |
| 20260502034538 | 8 | 240 | 0.0 | 0.0 | 0.00 | 0.00 | 0.00 | 69 | 1011.7 |
| 20260502033128 | 8 | 240 | 0.0 | 0.0 | 0.00 | 0.00 | 0.00 | 69 | 1011.9 |
| 20260502031545 | 8 | 240 | 0.0 | 0.0 | 0.00 | 0.00 | 0.00 | 69 | 1011.9 |
| 20260502030003 | 8 | 240 | 0.0 | 0.0 | 0.00 | 0.00 | 0.00 | 70 | 1011.9 |
| 20260502024556 | 8 | 240 | 0.0 | 0.0 | 0.00 | 0.00 | 0.00 | 68 | 1012.0 |
| 20260502021605 | 8 | 240 | 0.0 | 0.0 | 0.00 | 0.00 | 0.00 | 65 | 1012.1 |
| 20260502020023 | 8 | 240 | 0.0 | 0.0 | 0.00 | 0.00 | 0.00 | 56 | 1012.1 |
| 20260502014610 | 8 | 240 | 0.0 | 3.2 | 0.00 | 0.00 | 0.00 | 55 | 1012.1 |
| 20260502013040 | 9 | 240 | 0.0 | 0.0 | 0.00 | 0.00 | 0.00 | 55 | 1012.1 |
| 20260502011622 | 10 | 240 | 0.0 | 0.0 | 0.00 | 0.00 | 0.00 | 56 | 1012.0 |
| 20260502010041 | 10 | 240 | 0.0 | 4.8 | 0.00 | 0.00 | 0.00 | 55 | 1011.8 |
| 20260502004636 | 10 | 302 | 0.0 | 0.0 | 0.00 | 0.00 | 0.00 | 52 | 1011.8 |
| 20260502003101 | 10 | 302 | 0.0 | 0.0 | 0.00 | 0.00 | 0.00 | 52 | 1011.6 |
| 20260502001513 | 11 | 302 | 0.0 | 0.0 | 0.00 | 0.00 | 0.00 | 49 | 1011.3 |
| 20260502000105 | 11 | 302 | 0.0 | 0.0 | 0.00 | 0.00 | 0.00 | 48 | 1011.0 |
| 20260501234523 | 11 | 302 | 0.0 | 1.6 | 0.00 | 0.00 | 0.00 | 46 | 1010.8 |
| 20260501233112 | 12 | 302 | 0.0 | 0.0 | 0.00 | 0.00 | 0.00 | 45 | 1010.7 |
| 20260501230117 | 12 | 302 | 0.0 | 1.6 | 0.00 | 0.00 | 0.00 | 44 | 1010.5 |
| 20260501224537 | 12 | 301 | 0.0 | 0.0 | 0.00 | 0.00 | 0.00 | 43 | 1010.4 |
| 20260501223129 | 12 | 301 | 0.0 | 1.6 | 0.00 | 0.00 | 0.00 | 41 | 1010.3 |
| 20260501221551 | 13 | 269 | 1.6 | 9.7 | 0.00 | 0.00 | 0.00 | 38 | 1010.2 |
| 20260501220016 | 13 | 234 | 0.0 | 14.5 | 0.00 | 0.00 | 0.00 | 37 | 1010.2 |
| 20260501214610 | 14 | 332 | 0.0 | 8.0 | 0.00 | 0.00 | 0.00 | 37 | 1010.2 |
| 20260501213031 | 14 | 232 | 0.0 | 6.4 | 0.00 | 0.00 | 0.00 | 38 | 1010.2 |
| 20260501211624 | 14 | 95 | 0.0 | 4.8 | 0.00 | 0.00 | 0.00 | 37 | 1010.3 |
| 20260501210039 | 15 | 323 | 1.6 | 6.4 | 0.00 | 0.00 | 0.00 | 35 | 1010.3 |
| 20260501204624 | 15 | 275 | 3.2 | 12.9 | 0.00 | 0.00 | 0.00 | 33 | 1010.2 |
| 20260501203049 | 15 | 300 | 0.0 | 11.3 | 0.00 | 0.00 | 0.00 | 36 | 1010.3 |
| 20260501201505 | 15 | 258 | 0.0 | 8.0 | 0.00 | 0.00 | 0.00 | 34 | 1010.1 |
| 20260501200053 | 14 | 319 | 3.2 | 9.7 | 0.00 | 0.00 | 0.00 | 35 | 1010.1 |
| 20260501194522 | 15 | 360 | 3.2 | 12.9 | 0.00 | 0.00 | 0.00 | 35 | 1010.1 |
| 20260501193119 | 15 | 307 | 1.6 | 14.5 | 0.00 | 0.00 | 0.00 | 36 | 1010.3 |
| 20260501191537 | 13 | 313 | 3.2 | 19.3 | 0.00 | 0.00 | 0.00 | 39 | 1010.4 |
| 20260501190126 | 13 | 268 | 3.2 | 9.7 | 0.00 | 0.00 | 0.00 | 40 | 1010.7 |
| 20260501184549 | 13 | 25 | 3.2 | 16.1 | 0.00 | 0.00 | 0.00 | 41 | 1010.8 |
| 20260501183004 | 12 | 225 | 3.2 | 9.7 | 0.00 | 0.00 | 0.00 | 40 | 1010.9 |
| 20260501181610 | 12 | 328 | 1.6 | 14.5 | 0.00 | 0.00 | 0.00 | 41 | 1011.2 |
| 20260501180020 | 12 | 230 | 1.6 | 17.7 | 0.00 | 0.00 | 0.00 | 42 | 1011.1 |
| 20260501174608 | 11 | 343 | 3.2 | 17.7 | 0.00 | 0.00 | 0.00 | 42 | 1011.3 |
| 20260501173024 | 13 | 261 | 3.2 | 8.0 | 0.00 | 0.00 | 0.00 | 39 | 1011.4 |
| 20260501171618 | 12 | 283 | 1.6 | 16.1 | 0.00 | 0.00 | 0.00 | 40 | 1011.3 |
| 20260501170034 | 12 | 265 | 4.8 | 12.9 | 0.00 | 0.00 | 0.00 | 40 | 1011.3 |
| 20260501164633 | 12 | 271 | 3.2 | 14.5 | 0.00 | 0.05 | 0.00 | 41 | 1011.3 |
| 20260501163052 | 12 | 309 | 4.8 | 20.9 | 0.00 | 0.05 | 0.00 | 40 | 1011.5 |
| 20260501161519 | 12 | 17 | 3.2 | 12.9 | 0.00 | 0.05 | 0.00 | 41 | 1011.4 |
| 20260501160140 | 11 | 260 | 4.8 | 19.3 | 0.00 | 0.05 | 0.00 | 44 | 1011.7 |